Time,TemperatureF,DewpointF,PressureIn,WindDirection,WindDirectionDegrees,WindSpeedMPH,WindSpeedGustMPH,Humidity,HourlyPrecipIn,Conditions,Clouds,dailyrainin,SoftwareType,DateUTC
2013-03-21 00:00:00,39.9,29.8,29.87,WNW,284,9.0,18.0,67,0.00,,,0.00,WeatherCatV1.11B39,2013-03-21 04:00:00,
2013-03-21 00:01:00,39.9,29.8,29.87,West,281,18.0,20.0,67,0.00,,,0.00,WeatherCatV1.11B39,2013-03-21 04:01:00,
2013-03-21 00:06:00,39.8,29.8,29.87,West,281,4.0,12.0,67,0.00,,,0.00,WeatherCatV1.11B39,2013-03-21 04:06:00,
2013-03-21 00:11:00,39.6,29.6,29.87,NW,305,8.0,13.0,67,0.00,,,0.00,WeatherCatV1.11B39,2013-03-21 04:11:00,
2013-03-21 00:16:00,39.5,29.5,29.87,WSW,252,10.0,18.0,67,0.00,,,0.00,WeatherCatV1.11B39,2013-03-21 04:16:00,
2013-03-21 00:21:00,39.3,29.3,29.87,WNW,300,7.0,18.0,67,0.00,,,0.00,WeatherCatV1.11B39,2013-03-21 04:21:00,
2013-03-21 00:26:00,39.2,28.8,29.86,WNW,282,12.0,13.0,66,0.00,,,0.00,WeatherCatV1.11B39,2013-03-21 04:26:00,
2013-03-21 00:31:00,39.1,28.7,29.87,WSW,240,4.0,7.0,66,0.00,,,0.00,WeatherCatV1.11B39,2013-03-21 04:31:00,
2013-03-21 00:36:00,39.0,28.6,29.86,WSW,244,4.0,7.0,66,0.00,,,0.00,WeatherCatV1.11B39,2013-03-21 04:36:00,
2013-03-21 00:41:00,38.9,28.2,29.86,WSW,257,2.0,11.0,65,0.00,,,0.00,WeatherCatV1.11B39,2013-03-21 04:41:00,
2013-03-21 00:46:00,38.8,27.7,29.86,WNW,296,11.0,12.0,64,0.00,,,0.00,WeatherCatV1.11B39,2013-03-21 04:46:00,
2013-03-21 00:51:00,38.7,27.6,29.87,WNW,294,5.0,11.0,64,0.00,,,0.00,WeatherCatV1.11B39,2013-03-21 04:51:00,
2013-03-21 00:56:00,38.6,26.7,29.86,WSW,247,14.0,19.0,62,0.00,,,0.00,WeatherCatV1.11B39,2013-03-21 04:56:00,
2013-03-21 01:01:00,38.5,26.6,29.86,NW,321,9.0,13.0,62,0.00,,,0.00,WeatherCatV1.11B39,2013-03-21 05:01:00,
2013-03-21 01:06:00,38.4,26.5,29.85,WSW,257,8.0,16.0,62,0.00,,,0.00,WeatherCatV1.11B39,2013-03-21 05:06:00,
2013-03-21 01:11:00,38.2,26.0,29.86,NW,304,7.0,10.0,61,0.00,,,0.00,WeatherCatV1.11B39,2013-03-21 05:11:00,
2013-03-21 01:16:00,38.0,25.8,29.86,WSW,257,3.0,7.0,61,0.00,,,0.00,WeatherCatV1.11B39,2013-03-21 05:16:00,
2013-03-21 01:21:00,37.9,26.1,29.86,SW,220,5.0,11.0,62,0.00,,,0.00,WeatherCatV1.11B39,2013-03-21 05:21:00,
2013-03-21 01:26:00,37.8,26.0,29.86,West,260,10.0,14.0,62,0.00,,,0.00,WeatherCatV1.11B39,2013-03-21 05:26:00,
2013-03-21 01:31:00,37.6,25.8,29.86,SSW,209,4.0,6.0,62,0.00,,,0.00,WeatherCatV1.11B39,2013-03-21 05:31:00,
2013-03-21 01:36:00,37.6,26.2,29.85,SW,227,3.0,11.0,63,0.00,,,0.00,WeatherCatV1.11B39,2013-03-21 05:36:00,
2013-03-21 01:41:00,37.5,26.1,29.86,West,269,5.0,11.0,63,0.00,,,0.00,WeatherCatV1.11B39,2013-03-21 05:41:00,
2013-03-21 01:46:00,37.4,26.0,29.85,SW,225,4.0,6.0,63,0.00,,,0.00,WeatherCatV1.11B39,2013-03-21 05:46:00,
2013-03-21 01:51:00,37.3,26.3,29.85,West,269,7.0,7.0,64,0.00,,,0.00,WeatherCatV1.11B39,2013-03-21 05:51:00,
2013-03-21 01:56:00,37.3,25.9,29.85,WNW,298,5.0,12.0,63,0.00,,,0.00,WeatherCatV1.11B39,2013-03-21 05:56:00,
2013-03-21 02:01:00,37.3,25.5,29.85,West,270,8.0,9.0,62,0.00,,,0.00,WeatherCatV1.11B39,2013-03-21 06:01:00,
2013-03-21 02:06:00,37.4,26.0,29.85,WSW,249,10.0,13.0,63,0.00,,,0.00,WeatherCatV1.11B39,2013-03-21 06:06:00,
2013-03-21 02:11:00,37.3,25.9,29.84,WSW,240,8.0,8.0,63,0.00,,,0.00,WeatherCatV1.11B39,2013-03-21 06:11:00,
2013-03-21 02:16:00,37.2,25.8,29.84,West,261,5.0,9.0,63,0.00,,,0.00,WeatherCatV1.11B39,2013-03-21 06:16:00,
2013-03-21 02:21:00,37.1,26.1,29.84,West,270,5.0,11.0,64,0.00,,,0.00,WeatherCatV1.11B39,2013-03-21 06:21:00,
2013-03-21 02:26:00,37.0,25.6,29.84,West,265,6.0,21.0,63,0.00,,,0.00,WeatherCatV1.11B39,2013-03-21 06:26:00,
2013-03-21 02:31:00,36.9,25.5,29.84,West,263,6.0,21.0,63,0.00,,,0.00,WeatherCatV1.11B39,2013-03-21 06:31:00,
2013-03-21 02:36:00,36.7,25.7,29.84,WSW,242,11.0,11.0,64,0.00,,,0.00,WeatherCatV1.11B39,2013-03-21 06:36:00,
2013-03-21 02:40:00,36.6,25.2,29.84,WSW,238,4.0,17.0,63,0.00,,,0.00,WeatherCatV1.11B39,2013-03-21 06:40:00,
2013-03-21 02:45:00,36.5,25.1,29.83,WSW,249,12.0,17.0,63,0.00,,,0.00,WeatherCatV1.11B39,2013-03-21 06:45:00,
2013-03-21 02:50:00,36.4,25.0,29.84,West,259,7.0,12.0,63,0.00,,,0.00,WeatherCatV1.11B39,2013-03-21 06:50:00,
2013-03-21 02:55:00,36.3,24.9,29.84,WNW,283,18.0,20.0,63,0.00,,,0.00,WeatherCatV1.11B39,2013-03-21 06:55:00,
2013-03-21 03:00:00,36.1,24.4,29.84,NNW,330,9.0,19.0,62,0.00,,,0.00,WeatherCatV1.11B39,2013-03-21 07:00:00,
2013-03-21 03:05:00,36.0,24.3,29.84,WSW,248,7.0,9.0,62,0.00,,,0.00,WeatherCatV1.11B39,2013-03-21 07:05:00,
2013-03-21 03:10:00,36.0,23.9,29.84,WSW,252,6.0,15.0,61,0.00,,,0.00,WeatherCatV1.11B39,2013-03-21 07:10:00,
2013-03-21 03:15:00,35.8,24.1,29.83,WNW,294,11.0,13.0,62,0.00,,,0.00,WeatherCatV1.11B39,2013-03-21 07:15:00,
2013-03-21 03:20:00,35.7,24.0,29.83,WSW,258,8.0,13.0,62,0.00,,,0.00,WeatherCatV1.11B39,2013-03-21 07:20:00,
2013-03-21 03:25:00,35.5,23.8,29.83,WNW,286,11.0,12.0,62,0.00,,,0.00,WeatherCatV1.11B39,2013-03-21 07:25:00,
2013-03-21 03:30:00,35.4,23.3,29.82,West,281,9.0,21.0,61,0.00,,,0.00,WeatherCatV1.11B39,2013-03-21 07:30:00,
2013-03-21 03:35:00,35.5,23.0,29.82,WSW,244,7.0,20.0,60,0.00,,,0.00,WeatherCatV1.11B39,2013-03-21 07:35:00,
2013-03-21 03:40:00,35.5,23.0,29.82,West,281,23.0,23.0,60,0.00,,,0.00,WeatherCatV1.11B39,2013-03-21 07:40:00,
2013-03-21 03:45:00,35.5,22.2,29.82,West,280,19.0,22.0,58,0.00,,,0.00,WeatherCatV1.11B39,2013-03-21 07:45:00,
2013-03-21 03:50:00,35.3,22.4,29.82,West,261,8.0,8.0,59,0.00,,,0.00,WeatherCatV1.11B39,2013-03-21 07:50:00,
2013-03-21 03:55:00,35.1,22.2,29.82,NW,311,17.0,21.0,59,0.00,,,0.00,WeatherCatV1.11B39,2013-03-21 07:55:00,
2013-03-21 04:00:00,35.1,22.6,29.82,SW,217,6.0,17.0,60,0.00,,,0.00,WeatherCatV1.11B39,2013-03-21 08:00:00,
2013-03-21 04:05:00,34.8,22.3,29.82,WNW,284,13.0,18.0,60,0.00,,,0.00,WeatherCatV1.11B39,2013-03-21 08:05:00,
2013-03-21 04:10:00,34.8,21.5,29.82,WNW,303,9.0,19.0,58,0.00,,,0.00,WeatherCatV1.11B39,2013-03-21 08:10:00,
2013-03-21 04:15:00,34.6,21.8,29.83,SW,232,11.0,13.0,59,0.00,,,0.00,WeatherCatV1.11B39,2013-03-21 08:15:00,
2013-03-21 04:20:00,34.4,20.3,29.82,West,280,7.0,18.0,56,0.00,,,0.00,WeatherCatV1.11B39,2013-03-21 08:20:00,
2013-03-21 04:25:00,34.2,20.6,29.82,West,265,5.0,22.0,57,0.00,,,0.00,WeatherCatV1.11B39,2013-03-21 08:25:00,
2013-03-21 04:30:00,34.0,21.2,29.82,West,265,8.0,15.0,59,0.00,,,0.00,WeatherCatV1.11B39,2013-03-21 08:30:00,
2013-03-21 04:35:00,33.7,20.9,29.81,WNW,303,15.0,19.0,59,0.00,,,0.00,WeatherCatV1.11B39,2013-03-21 08:35:00,
2013-03-21 04:40:00,33.5,21.1,29.81,WSW,245,4.0,11.0,60,0.00,,,0.00,WeatherCatV1.11B39,2013-03-21 08:40:00,
2013-03-21 04:45:00,33.3,20.9,29.81,SSW,196,7.0,11.0,60,0.00,,,0.00,WeatherCatV1.11B39,2013-03-21 08:45:00,
2013-03-21 04:50:00,33.1,20.7,29.81,West,265,12.0,15.0,60,0.00,,,0.00,WeatherCatV1.11B39,2013-03-21 08:50:00,
2013-03-21 04:55:00,32.9,20.6,29.81,SW,221,9.0,10.0,60,0.00,,,0.00,WeatherCatV1.11B39,2013-03-21 08:55:00,
2013-03-21 05:00:00,32.7,20.0,29.81,West,259,12.0,18.0,59,0.00,,,0.00,WeatherCatV1.11B39,2013-03-21 09:00:00,
2013-03-21 05:05:00,32.6,19.9,29.81,SW,228,2.0,17.0,59,0.00,,,0.00,WeatherCatV1.11B39,2013-03-21 09:05:00,
2013-03-21 05:10:00,32.4,19.3,29.80,SW,236,10.0,22.0,58,0.00,,,0.00,WeatherCatV1.11B39,2013-03-21 09:10:00,
2013-03-21 05:15:00,32.2,19.1,29.80,West,272,11.0,15.0,58,0.00,,,0.00,WeatherCatV1.11B39,2013-03-21 09:15:00,
2013-03-21 05:20:00,32.0,18.9,29.80,West,277,16.0,16.0,58,0.00,,,0.00,WeatherCatV1.11B39,2013-03-21 09:20:00,
2013-03-21 05:25:00,31.8,18.3,29.80,West,281,9.0,12.0,57,0.00,,,0.00,WeatherCatV1.11B39,2013-03-21 09:25:00,
2013-03-21 05:30:00,31.7,18.2,29.81,West,265,22.0,22.0,57,0.00,,,0.00,WeatherCatV1.11B39,2013-03-21 09:30:00,
2013-03-21 05:35:00,31.6,18.1,29.81,SSW,205,5.0,10.0,57,0.00,,,0.00,WeatherCatV1.11B39,2013-03-21 09:35:00,
2013-03-21 05:40:00,31.5,17.6,29.81,WSW,254,5.0,17.0,56,0.00,,,0.00,WeatherCatV1.11B39,2013-03-21 09:40:00,
2013-03-21 05:45:00,31.3,17.4,29.81,WSW,258,12.0,24.0,56,0.00,,,0.00,WeatherCatV1.11B39,2013-03-21 09:45:00,
2013-03-21 05:50:00,31.2,17.4,29.81,NW,305,15.0,20.0,56,0.00,,,0.00,WeatherCatV1.11B39,2013-03-21 09:50:00,
2013-03-21 05:55:00,31.0,17.6,29.82,WSW,246,7.0,7.0,57,0.00,,,0.00,WeatherCatV1.11B39,2013-03-21 09:55:00,
2013-03-21 06:00:00,30.8,16.6,29.82,SW,231,16.0,22.0,55,0.00,,,0.00,WeatherCatV1.11B39,2013-03-21 10:00:00,
2013-03-21 06:05:00,30.6,16.4,29.82,West,280,12.0,28.0,55,0.00,,,0.00,WeatherCatV1.11B39,2013-03-21 10:05:00,
2013-03-21 06:10:00,30.5,16.3,29.82,West,274,6.0,18.0,55,0.00,,,0.00,WeatherCatV1.11B39,2013-03-21 10:10:00,
2013-03-21 06:15:00,30.3,16.1,29.82,SW,221,9.0,20.0,55,0.00,,,0.00,WeatherCatV1.11B39,2013-03-21 10:15:00,
2013-03-21 06:20:00,30.1,15.9,29.82,SW,229,10.0,12.0,55,0.00,,,0.00,WeatherCatV1.11B39,2013-03-21 10:20:00,
2013-03-21 06:25:00,30.0,15.8,29.82,NW,317,13.0,13.0,55,0.00,,,0.00,WeatherCatV1.11B39,2013-03-21 10:25:00,
2013-03-21 06:30:00,29.9,15.7,29.82,WNW,292,8.0,19.0,55,0.00,,,0.00,WeatherCatV1.11B39,2013-03-21 10:30:00,
2013-03-21 06:35:00,29.8,15.6,29.82,West,275,4.0,13.0,55,0.00,,,0.00,WeatherCatV1.11B39,2013-03-21 10:35:00,
2013-03-21 06:40:00,29.7,15.5,29.82,WSW,250,7.0,16.0,55,0.00,,,0.00,WeatherCatV1.11B39,2013-03-21 10:40:00,
2013-03-21 06:45:00,29.6,14.6,29.82,WNW,297,13.0,16.0,53,0.00,,,0.00,WeatherCatV1.11B39,2013-03-21 10:45:00,
2013-03-21 06:50:00,29.5,14.5,29.82,WNW,291,1.0,8.0,53,0.00,,,0.00,WeatherCatV1.11B39,2013-03-21 10:50:00,
2013-03-21 06:55:00,29.3,13.9,29.82,South,185,3.0,16.0,52,0.00,,,0.00,WeatherCatV1.11B39,2013-03-21 10:55:00,
2013-03-21 07:00:00,29.3,13.4,29.82,West,261,14.0,21.0,51,0.00,,,0.00,WeatherCatV1.11B39,2013-03-21 11:00:00,
2013-03-21 07:05:00,29.2,13.4,29.82,WSW,243,7.0,17.0,51,0.00,,,0.00,WeatherCatV1.11B39,2013-03-21 11:05:00,
2013-03-21 07:10:00,29.1,13.3,29.82,West,277,7.0,15.0,51,0.00,,,0.00,WeatherCatV1.11B39,2013-03-21 11:10:00,
2013-03-21 07:15:00,29.0,13.6,29.83,ESE,107,2.0,5.0,52,0.00,,,0.00,WeatherCatV1.11B39,2013-03-21 11:15:00,
2013-03-21 07:20:00,28.9,12.6,29.83,SW,229,3.0,11.0,50,0.00,,,0.00,WeatherCatV1.11B39,2013-03-21 11:20:00,
2013-03-21 07:25:00,28.8,12.5,29.83,WSW,241,5.0,9.0,50,0.00,,,0.00,WeatherCatV1.11B39,2013-03-21 11:25:00,
2013-03-21 07:30:00,28.8,13.0,29.83,WNW,288,1.0,6.0,51,0.00,,,0.00,WeatherCatV1.11B39,2013-03-21 11:30:00,
2013-03-21 07:35:00,28.6,12.8,29.84,NW,323,6.0,9.0,51,0.00,,,0.00,WeatherCatV1.11B39,2013-03-21 11:35:00,
2013-03-21 07:40:00,28.5,12.7,29.84,SSW,197,2.0,4.0,51,0.00,,,0.00,WeatherCatV1.11B39,2013-03-21 11:40:00,
2013-03-21 07:45:00,28.5,12.7,29.84,WNW,292,7.0,7.0,51,0.00,,,0.00,WeatherCatV1.11B39,2013-03-21 11:45:00,
2013-03-21 07:49:00,28.4,13.0,29.84,West,281,1.0,4.0,52,0.00,,,0.00,WeatherCatV1.11B39,2013-03-21 11:49:00,
2013-03-21 07:54:00,28.3,13.0,29.84,West,275,0.0,4.0,52,0.00,,,0.00,WeatherCatV1.11B39,2013-03-21 11:54:00,
2013-03-21 07:59:00,28.2,13.3,29.84,West,275,1.0,2.0,53,0.00,,,0.00,WeatherCatV1.11B39,2013-03-21 11:59:00,
2013-03-21 08:04:00,28.1,13.2,29.84,West,281,2.0,7.0,53,0.00,,,0.00,WeatherCatV1.11B39,2013-03-21 12:04:00,
2013-03-21 08:09:00,28.1,13.2,29.84,WNW,292,0.0,13.0,53,0.00,,,0.00,WeatherCatV1.11B39,2013-03-21 12:09:00,
2013-03-21 08:14:00,28.1,13.2,29.84,WSW,241,6.0,7.0,53,0.00,,,0.00,WeatherCatV1.11B39,2013-03-21 12:14:00,
2013-03-21 08:19:00,28.1,12.8,29.84,WNW,284,5.0,13.0,52,0.00,,,0.00,WeatherCatV1.11B39,2013-03-21 12:19:00,
2013-03-21 08:24:00,28.2,12.4,29.84,WSW,249,3.0,8.0,51,0.00,,,0.00,WeatherCatV1.11B39,2013-03-21 12:24:00,
2013-03-21 08:29:00,28.3,12.5,29.84,WNW,292,1.0,7.0,51,0.00,,,0.00,WeatherCatV1.11B39,2013-03-21 12:29:00,
2013-03-21 08:34:00,28.4,12.2,29.84,South,188,6.0,7.0,50,0.00,,,0.00,WeatherCatV1.11B39,2013-03-21 12:34:00,
2013-03-21 08:39:00,28.5,12.3,29.84,West,281,6.0,6.0,50,0.00,,,0.00,WeatherCatV1.11B39,2013-03-21 12:39:00,
2013-03-21 08:44:00,28.5,11.3,29.85,South,174,7.0,15.0,48,0.00,,,0.00,WeatherCatV1.11B39,2013-03-21 12:44:00,
2013-03-21 08:49:00,28.7,12.0,29.85,West,271,8.0,8.0,49,0.00,,,0.00,WeatherCatV1.11B39,2013-03-21 12:49:00,
2013-03-21 08:54:00,28.7,12.0,29.85,West,275,7.0,8.0,49,0.00,,,0.00,WeatherCatV1.11B39,2013-03-21 12:54:00,
2013-03-21 08:59:00,28.9,11.7,29.85,SW,222,4.0,7.0,48,0.00,,,0.00,WeatherCatV1.11B39,2013-03-21 12:59:00,
2013-03-21 09:04:00,29.0,10.8,29.86,WSW,248,6.0,11.0,46,0.00,,,0.00,WeatherCatV1.11B39,2013-03-21 13:04:00,
2013-03-21 09:09:00,29.2,10.5,29.86,SW,232,1.0,3.0,45,0.00,,,0.00,WeatherCatV1.11B39,2013-03-21 13:09:00,
2013-03-21 09:14:00,29.2,9.5,29.86,SW,225,6.0,11.0,43,0.00,,,0.00,WeatherCatV1.11B39,2013-03-21 13:14:00,
2013-03-21 09:19:00,29.2,9.0,29.86,SW,227,10.0,13.0,42,0.00,,,0.00,WeatherCatV1.11B39,2013-03-21 13:19:00,
2013-03-21 09:24:00,29.2,9.5,29.85,WSW,239,6.0,11.0,43,0.00,,,0.00,WeatherCatV1.11B39,2013-03-21 13:24:00,
2013-03-21 09:29:00,29.4,8.6,29.86,SW,223,6.0,13.0,41,0.00,,,0.00,WeatherCatV1.11B39,2013-03-21 13:29:00,
2013-03-21 09:34:00,29.5,9.3,29.87,WSW,243,8.0,13.0,42,0.00,,,0.00,WeatherCatV1.11B39,2013-03-21 13:34:00,
2013-03-21 09:39:00,29.5,8.7,29.87,South,190,7.0,10.0,41,0.00,,,0.00,WeatherCatV1.11B39,2013-03-21 13:39:00,
2013-03-21 09:44:00,29.8,9.0,29.87,WSW,237,5.0,10.0,41,0.00,,,0.00,WeatherCatV1.11B39,2013-03-21 13:44:00,
2013-03-21 09:49:00,30.1,8.2,29.87,WSW,252,8.0,14.0,39,0.00,,,0.00,WeatherCatV1.11B39,2013-03-21 13:49:00,
2013-03-21 09:54:00,30.3,8.3,29.87,West,261,11.0,17.0,39,0.00,,,0.00,WeatherCatV1.11B39,2013-03-21 13:54:00,
2013-03-21 09:59:00,30.4,7.3,29.87,WSW,257,10.0,19.0,37,0.00,,,0.00,WeatherCatV1.11B39,2013-03-21 13:59:00,
2013-03-21 10:04:00,30.4,7.9,29.88,WNW,286,13.0,19.0,38,0.00,,,0.00,WeatherCatV1.11B39,2013-03-21 14:04:00,
2013-03-21 10:09:00,30.5,7.4,29.88,West,263,7.0,11.0,37,0.00,,,0.00,WeatherCatV1.11B39,2013-03-21 14:09:00,
2013-03-21 10:14:00,30.9,7.1,29.88,West,281,5.0,14.0,36,0.00,,,0.00,WeatherCatV1.11B39,2013-03-21 14:14:00,
2013-03-21 10:19:00,31.1,6.7,29.88,WNW,290,20.0,20.0,35,0.00,,,0.00,WeatherCatV1.11B39,2013-03-21 14:19:00,
2013-03-21 10:24:00,31.2,6.8,29.88,South,181,5.0,13.0,35,0.00,,,0.00,WeatherCatV1.11B39,2013-03-21 14:24:00,
2013-03-21 10:29:00,31.6,6.5,29.88,SW,223,5.0,19.0,34,0.00,,,0.00,WeatherCatV1.11B39,2013-03-21 14:29:00,
2013-03-21 10:34:00,32.0,6.8,29.88,WSW,254,10.0,15.0,34,0.00,,,0.00,WeatherCatV1.11B39,2013-03-21 14:34:00,
2013-03-21 10:39:00,32.2,6.4,29.87,South,188,8.0,9.0,33,0.00,,,0.00,WeatherCatV1.11B39,2013-03-21 14:39:00,
2013-03-21 10:44:00,32.3,8.4,29.88,WNW,298,9.0,9.0,36,0.00,,,0.00,WeatherCatV1.11B39,2013-03-21 14:44:00,
2013-03-21 10:49:00,32.3,6.5,29.88,SSW,205,7.0,13.0,33,0.00,,,0.00,WeatherCatV1.11B39,2013-03-21 14:49:00,
2013-03-21 10:54:00,32.4,7.8,29.88,WNW,285,14.0,14.0,35,0.00,,,0.00,WeatherCatV1.11B39,2013-03-21 14:54:00,
2013-03-21 10:59:00,32.6,6.7,29.88,West,266,11.0,18.0,33,0.00,,,0.00,WeatherCatV1.11B39,2013-03-21 14:59:00,
2013-03-21 11:04:00,33.1,7.2,29.88,WSW,248,3.0,10.0,33,0.00,,,0.00,WeatherCatV1.11B39,2013-03-21 15:04:00,
2013-03-21 11:09:00,33.2,7.9,29.88,WNW,293,5.0,9.0,34,0.00,,,0.00,WeatherCatV1.11B39,2013-03-21 15:09:00,
2013-03-21 11:14:00,33.7,7.0,29.88,SSW,196,5.0,10.0,32,0.00,,,0.00,WeatherCatV1.11B39,2013-03-21 15:14:00,
2013-03-21 11:19:00,33.9,5.8,29.88,WSW,257,14.0,14.0,30,0.00,,,0.00,WeatherCatV1.11B39,2013-03-21 15:19:00,
2013-03-21 11:24:00,33.9,5.0,29.88,West,275,16.0,22.0,29,0.00,,,0.00,WeatherCatV1.11B39,2013-03-21 15:24:00,
2013-03-21 11:29:00,34.1,6.7,29.88,SW,215,5.0,12.0,31,0.00,,,0.00,WeatherCatV1.11B39,2013-03-21 15:29:00,
2013-03-21 11:34:00,34.7,6.5,29.88,WSW,254,10.0,18.0,30,0.00,,,0.00,WeatherCatV1.11B39,2013-03-21 15:34:00,
2013-03-21 11:39:00,34.6,7.1,29.88,WNW,295,8.0,20.0,31,0.00,,,0.00,WeatherCatV1.11B39,2013-03-21 15:39:00,
2013-03-21 11:44:00,34.7,7.9,29.88,West,280,11.0,15.0,32,0.00,,,0.00,WeatherCatV1.11B39,2013-03-21 15:44:00,
2013-03-21 11:49:00,34.9,7.4,29.88,West,278,21.0,21.0,31,0.00,,,0.00,WeatherCatV1.11B39,2013-03-21 15:49:00,
2013-03-21 11:54:00,35.0,8.8,29.88,SSW,202,10.0,10.0,33,0.00,,,0.00,WeatherCatV1.11B39,2013-03-21 15:54:00,
2013-03-21 11:59:00,35.4,8.5,29.87,West,273,12.0,15.0,32,0.00,,,0.00,WeatherCatV1.11B39,2013-03-21 15:59:00,
2013-03-21 12:04:00,35.5,8.6,29.87,SW,224,9.0,14.0,32,0.00,,,0.00,WeatherCatV1.11B39,2013-03-21 16:04:00,
2013-03-21 12:09:00,35.4,6.3,29.88,SW,229,16.0,22.0,29,0.00,,,0.00,WeatherCatV1.11B39,2013-03-21 16:09:00,
2013-03-21 12:14:00,35.8,8.2,29.87,SW,232,11.0,13.0,31,0.00,,,0.00,WeatherCatV1.11B39,2013-03-21 16:14:00,
2013-03-21 12:19:00,35.8,5.1,29.88,WSW,238,10.0,32.0,27,0.00,,,0.00,WeatherCatV1.11B39,2013-03-21 16:19:00,
2013-03-21 12:24:00,36.0,5.3,29.87,WNW,283,16.0,16.0,27,0.00,,,0.00,WeatherCatV1.11B39,2013-03-21 16:24:00,
2013-03-21 12:29:00,36.1,5.4,29.88,WSW,244,12.0,18.0,27,0.00,,,0.00,WeatherCatV1.11B39,2013-03-21 16:29:00,
2013-03-21 12:34:00,36.2,5.5,29.88,WNW,292,11.0,22.0,27,0.00,,,0.00,WeatherCatV1.11B39,2013-03-21 16:34:00,
2013-03-21 12:39:00,36.6,5.0,29.88,West,277,13.0,16.0,26,0.00,,,0.00,WeatherCatV1.11B39,2013-03-21 16:39:00,
2013-03-21 12:44:00,37.1,5.4,29.88,SSW,201,5.0,8.0,26,0.00,,,0.00,WeatherCatV1.11B39,2013-03-21 16:44:00,
2013-03-21 12:49:00,37.7,9.1,29.88,West,263,21.0,21.0,30,0.00,,,0.00,WeatherCatV1.11B39,2013-03-21 16:49:00,
2013-03-21 12:53:00,37.3,5.6,29.88,West,262,21.0,22.0,26,0.00,,,0.00,WeatherCatV1.11B39,2013-03-21 16:53:00,
2013-03-21 12:58:00,37.2,7.1,29.88,WNW,287,18.0,18.0,28,0.00,,,0.00,WeatherCatV1.11B39,2013-03-21 16:58:00,
2013-03-21 13:03:00,37.4,8.8,29.88,SW,231,11.0,14.0,30,0.00,,,0.00,WeatherCatV1.11B39,2013-03-21 17:03:00,
2013-03-21 13:08:00,37.5,6.6,29.88,West,277,20.0,20.0,27,0.00,,,0.00,WeatherCatV1.11B39,2013-03-21 17:08:00,
2013-03-21 13:13:00,37.7,8.3,29.88,WNW,285,9.0,16.0,29,0.00,,,0.00,WeatherCatV1.11B39,2013-03-21 17:13:00,
2013-03-21 13:18:00,38.1,6.3,29.88,WNW,296,19.0,20.0,26,0.00,,,0.00,WeatherCatV1.11B39,2013-03-21 17:18:00,
2013-03-21 13:23:00,38.4,7.4,29.88,WSW,248,5.0,20.0,27,0.00,,,0.00,WeatherCatV1.11B39,2013-03-21 17:23:00,
2013-03-21 13:28:00,38.2,6.4,29.88,WNW,292,8.0,18.0,26,0.00,,,0.00,WeatherCatV1.11B39,2013-03-21 17:28:00,
2013-03-21 13:33:00,38.2,6.4,29.88,WSW,255,8.0,20.0,26,0.00,,,0.00,WeatherCatV1.11B39,2013-03-21 17:33:00,
2013-03-21 13:38:00,38.1,8.7,29.87,WNW,286,16.0,16.0,29,0.00,,,0.00,WeatherCatV1.11B39,2013-03-21 17:38:00,
2013-03-21 13:43:00,38.3,8.1,29.87,WNW,284,11.0,20.0,28,0.00,,,0.00,WeatherCatV1.11B39,2013-03-21 17:43:00,
2013-03-21 13:48:00,38.2,6.4,29.88,West,265,21.0,29.0,26,0.00,,,0.00,WeatherCatV1.11B39,2013-03-21 17:48:00,
2013-03-21 13:53:00,38.3,7.3,29.87,WSW,243,5.0,15.0,27,0.00,,,0.00,WeatherCatV1.11B39,2013-03-21 17:53:00,
2013-03-21 13:58:00,38.7,7.6,29.87,WSW,252,8.0,24.0,27,0.00,,,0.00,WeatherCatV1.11B39,2013-03-21 17:58:00,
2013-03-21 14:03:00,39.1,8.8,29.87,NNW,341,9.0,11.0,28,0.00,,,0.00,WeatherCatV1.11B39,2013-03-21 18:03:00,
2013-03-21 14:08:00,39.0,7.9,29.87,SW,224,5.0,18.0,27,0.00,,,0.00,WeatherCatV1.11B39,2013-03-21 18:08:00,
2013-03-21 14:13:00,39.2,8.1,29.87,WNW,296,14.0,24.0,27,0.00,,,0.00,WeatherCatV1.11B39,2013-03-21 18:13:00,
2013-03-21 14:18:00,39.4,8.2,29.87,West,272,23.0,30.0,27,0.00,,,0.00,WeatherCatV1.11B39,2013-03-21 18:18:00,
2013-03-21 14:23:00,39.2,7.2,29.86,West,266,21.0,25.0,26,0.00,,,0.00,WeatherCatV1.11B39,2013-03-21 18:23:00,
2013-03-21 14:28:00,39.5,8.3,29.86,SW,216,7.0,24.0,27,0.00,,,0.00,WeatherCatV1.11B39,2013-03-21 18:28:00,
2013-03-21 14:33:00,39.6,8.4,29.86,SW,232,11.0,19.0,27,0.00,,,0.00,WeatherCatV1.11B39,2013-03-21 18:33:00,
2013-03-21 14:38:00,39.5,9.9,29.85,West,277,11.0,28.0,29,0.00,,,0.00,WeatherCatV1.11B39,2013-03-21 18:38:00,
2013-03-21 14:43:00,39.5,8.3,29.85,West,260,10.0,17.0,27,0.00,,,0.00,WeatherCatV1.11B39,2013-03-21 18:43:00,
2013-03-21 14:48:00,40.2,10.5,29.85,West,265,8.0,12.0,29,0.00,,,0.00,WeatherCatV1.11B39,2013-03-21 18:48:00,
2013-03-21 14:53:00,40.6,9.3,29.85,NW,311,8.0,19.0,27,0.00,,,0.00,WeatherCatV1.11B39,2013-03-21 18:53:00,
2013-03-21 14:58:00,40.6,9.3,29.85,West,269,5.0,13.0,27,0.00,,,0.00,WeatherCatV1.11B39,2013-03-21 18:58:00,
2013-03-21 15:03:00,40.7,9.4,29.85,West,277,14.0,19.0,27,0.00,,,0.00,WeatherCatV1.11B39,2013-03-21 19:03:00,
2013-03-21 15:08:00,40.9,9.5,29.85,West,279,14.0,25.0,27,0.00,,,0.00,WeatherCatV1.11B39,2013-03-21 19:08:00,
2013-03-21 15:13:00,40.4,9.1,29.85,WNW,293,15.0,21.0,27,0.00,,,0.00,WeatherCatV1.11B39,2013-03-21 19:13:00,
2013-03-21 15:18:00,40.7,9.4,29.85,NW,305,11.0,26.0,27,0.00,,,0.00,WeatherCatV1.11B39,2013-03-21 19:18:00,
2013-03-21 15:23:00,40.7,9.4,29.85,WSW,252,8.0,20.0,27,0.00,,,0.00,WeatherCatV1.11B39,2013-03-21 19:23:00,
2013-03-21 15:28:00,41.1,9.7,29.85,West,279,12.0,17.0,27,0.00,,,0.00,WeatherCatV1.11B39,2013-03-21 19:28:00,
2013-03-21 15:33:00,41.3,9.9,29.85,SSW,209,5.0,21.0,27,0.00,,,0.00,WeatherCatV1.11B39,2013-03-21 19:33:00,
2013-03-21 15:38:00,41.3,10.7,29.85,West,268,12.0,23.0,28,0.00,,,0.00,WeatherCatV1.11B39,2013-03-21 19:38:00,
2013-03-21 15:43:00,41.5,10.0,29.85,NW,304,5.0,13.0,27,0.00,,,0.00,WeatherCatV1.11B39,2013-03-21 19:43:00,
2013-03-21 15:48:00,41.6,10.1,29.85,NNE,27,5.0,16.0,27,0.00,,,0.00,WeatherCatV1.11B39,2013-03-21 19:48:00,
2013-03-21 15:53:00,41.8,10.3,29.85,WSW,255,8.0,21.0,27,0.00,,,0.00,WeatherCatV1.11B39,2013-03-21 19:53:00,
2013-03-21 15:58:00,41.6,10.9,29.85,West,281,9.0,22.0,28,0.00,,,0.00,WeatherCatV1.11B39,2013-03-21 19:58:00,
2013-03-21 16:03:00,41.6,10.1,29.85,WNW,288,14.0,22.0,27,0.00,,,0.00,WeatherCatV1.11B39,2013-03-21 20:03:00,
2013-03-21 16:08:00,41.7,11.0,29.84,West,278,11.0,23.0,28,0.00,,,0.00,WeatherCatV1.11B39,2013-03-21 20:08:00,
2013-03-21 16:13:00,42.5,11.7,29.85,WSW,257,5.0,11.0,28,0.00,,,0.00,WeatherCatV1.11B39,2013-03-21 20:13:00,
2013-03-21 16:18:00,42.4,11.6,29.85,WSW,254,10.0,14.0,28,0.00,,,0.00,WeatherCatV1.11B39,2013-03-21 20:18:00,
2013-03-21 16:23:00,42.4,10.0,29.85,West,280,8.0,25.0,26,0.00,,,0.00,WeatherCatV1.11B39,2013-03-21 20:23:00,
2013-03-21 16:28:00,42.3,12.3,29.86,West,281,14.0,15.0,29,0.00,,,0.00,WeatherCatV1.11B39,2013-03-21 20:28:00,
2013-03-21 16:33:00,42.3,10.7,29.85,WNW,302,18.0,28.0,27,0.00,,,0.00,WeatherCatV1.11B39,2013-03-21 20:33:00,
2013-03-21 16:38:00,42.5,11.7,29.85,WNW,282,16.0,20.0,28,0.00,,,0.00,WeatherCatV1.11B39,2013-03-21 20:38:00,
2013-03-21 16:43:00,42.6,12.6,29.85,NW,312,8.0,8.0,29,0.00,,,0.00,WeatherCatV1.11B39,2013-03-21 20:43:00,
2013-03-21 16:48:00,42.9,10.4,29.85,WNW,299,6.0,19.0,26,0.00,,,0.00,WeatherCatV1.11B39,2013-03-21 20:48:00,
2013-03-21 16:53:00,42.5,10.1,29.85,West,271,12.0,22.0,26,0.00,,,0.00,WeatherCatV1.11B39,2013-03-21 20:53:00,
2013-03-21 16:58:00,42.3,9.9,29.85,WSW,248,18.0,21.0,26,0.00,,,0.00,WeatherCatV1.11B39,2013-03-21 20:58:00,
2013-03-21 17:03:00,42.0,9.6,29.85,WNW,286,19.0,23.0,26,0.00,,,0.00,WeatherCatV1.11B39,2013-03-21 21:03:00,
2013-03-21 17:08:00,42.2,9.8,29.85,SSW,194,12.0,15.0,26,0.00,,,0.00,WeatherCatV1.11B39,2013-03-21 21:08:00,
2013-03-21 17:13:00,42.2,8.9,29.85,SW,232,7.0,25.0,25,0.00,,,0.00,WeatherCatV1.11B39,2013-03-21 21:13:00,
2013-03-21 17:18:00,42.4,10.8,29.86,West,259,6.0,19.0,27,0.00,,,0.00,WeatherCatV1.11B39,2013-03-21 21:18:00,
2013-03-21 17:23:00,42.3,10.7,29.86,WNW,294,18.0,26.0,27,0.00,,,0.00,WeatherCatV1.11B39,2013-03-21 21:23:00,
2013-03-21 17:28:00,42.2,9.8,29.86,West,265,10.0,18.0,26,0.00,,,0.00,WeatherCatV1.11B39,2013-03-21 21:28:00,
2013-03-21 17:33:00,42.1,10.6,29.85,West,277,16.0,18.0,27,0.00,,,0.00,WeatherCatV1.11B39,2013-03-21 21:33:00,
2013-03-21 17:38:00,42.3,10.7,29.85,WNW,282,21.0,21.0,27,0.00,,,0.00,WeatherCatV1.11B39,2013-03-21 21:38:00,
2013-03-21 17:43:00,42.2,9.8,29.85,NNW,344,1.0,14.0,26,0.00,,,0.00,WeatherCatV1.11B39,2013-03-21 21:43:00,
2013-03-21 17:48:00,42.5,10.9,29.85,NW,317,6.0,9.0,27,0.00,,,0.00,WeatherCatV1.11B39,2013-03-21 21:48:00,
2013-03-21 17:52:00,42.6,11.0,29.85,West,267,4.0,14.0,27,0.00,,,0.00,WeatherCatV1.11B39,2013-03-21 21:52:00,
2013-03-21 17:57:00,42.4,10.8,29.85,SSW,211,6.0,14.0,27,0.00,,,0.00,WeatherCatV1.11B39,2013-03-21 21:57:00,
2013-03-21 18:02:00,42.7,10.2,29.85,WNW,286,14.0,24.0,26,0.00,,,0.00,WeatherCatV1.11B39,2013-03-21 22:02:00,
2013-03-21 18:07:00,42.4,10.0,29.84,WSW,248,11.0,18.0,26,0.00,,,0.00,WeatherCatV1.11B39,2013-03-21 22:07:00,
2013-03-21 18:12:00,42.3,10.7,29.85,WSW,250,7.0,13.0,27,0.00,,,0.00,WeatherCatV1.11B39,2013-03-21 22:12:00,
2013-03-21 18:17:00,42.3,11.5,29.85,West,265,10.0,19.0,28,0.00,,,0.00,WeatherCatV1.11B39,2013-03-21 22:17:00,
2013-03-21 18:22:00,42.2,10.6,29.85,West,269,12.0,14.0,27,0.00,,,0.00,WeatherCatV1.11B39,2013-03-21 22:22:00,
2013-03-21 18:27:00,42.1,10.6,29.85,SSW,211,1.0,5.0,27,0.00,,,0.00,WeatherCatV1.11B39,2013-03-21 22:27:00,
2013-03-21 18:32:00,42.4,11.6,29.85,SW,227,4.0,4.0,28,0.00,,,0.00,WeatherCatV1.11B39,2013-03-21 22:32:00,
2013-03-21 18:37:00,42.8,12.0,29.85,WSW,257,6.0,11.0,28,0.00,,,0.00,WeatherCatV1.11B39,2013-03-21 22:37:00,
2013-03-21 18:42:00,42.5,10.9,29.85,West,265,0.0,7.0,27,0.00,,,0.00,WeatherCatV1.11B39,2013-03-21 22:42:00,
2013-03-21 18:47:00,42.3,10.7,29.85,West,279,6.0,13.0,27,0.00,,,0.00,WeatherCatV1.11B39,2013-03-21 22:47:00,
2013-03-21 18:52:00,42.1,10.6,29.86,West,281,8.0,12.0,27,0.00,,,0.00,WeatherCatV1.11B39,2013-03-21 22:52:00,
2013-03-21 18:57:00,42.0,11.3,29.85,WSW,252,6.0,13.0,28,0.00,,,0.00,WeatherCatV1.11B39,2013-03-21 22:57:00,
2013-03-21 19:02:00,41.8,10.3,29.85,WNW,291,6.0,12.0,27,0.00,,,0.00,WeatherCatV1.11B39,2013-03-21 23:02:00,
2013-03-21 19:07:00,41.6,10.9,29.85,WSW,249,7.0,10.0,28,0.00,,,0.00,WeatherCatV1.11B39,2013-03-21 23:07:00,
2013-03-21 19:12:00,41.5,10.9,29.85,West,271,6.0,11.0,28,0.00,,,0.00,WeatherCatV1.11B39,2013-03-21 23:12:00,
2013-03-21 19:17:00,41.3,11.5,29.86,SSW,213,4.0,8.0,29,0.00,,,0.00,WeatherCatV1.11B39,2013-03-21 23:17:00,
2013-03-21 19:22:00,41.0,10.4,29.86,WSW,257,6.0,16.0,28,0.00,,,0.00,WeatherCatV1.11B39,2013-03-21 23:22:00,
2013-03-21 19:27:00,40.7,10.2,29.86,WNW,286,7.0,13.0,28,0.00,,,0.00,WeatherCatV1.11B39,2013-03-21 23:27:00,
2013-03-21 19:32:00,40.5,10.8,29.86,SW,217,7.0,12.0,29,0.00,,,0.00,WeatherCatV1.11B39,2013-03-21 23:32:00,
2013-03-21 19:37:00,40.3,11.4,29.87,West,263,8.0,15.0,30,0.00,,,0.00,WeatherCatV1.11B39,2013-03-21 23:37:00,
2013-03-21 19:42:00,40.2,11.3,29.86,NW,308,4.0,5.0,30,0.00,,,0.00,WeatherCatV1.11B39,2013-03-21 23:42:00,
2013-03-21 19:47:00,40.0,11.1,29.86,West,259,12.0,14.0,30,0.00,,,0.00,WeatherCatV1.11B39,2013-03-21 23:47:00,
2013-03-21 19:52:00,39.7,10.8,29.87,West,269,14.0,15.0,30,0.00,,,0.00,WeatherCatV1.11B39,2013-03-21 23:52:00,
2013-03-21 19:57:00,39.6,10.8,29.87,WNW,286,2.0,5.0,30,0.00,,,0.00,WeatherCatV1.11B39,2013-03-21 23:57:00,
2013-03-21 20:02:00,39.4,10.6,29.87,WNW,294,4.0,13.0,30,0.00,,,0.00,WeatherCatV1.11B39,2013-03-22 00:02:00,
2013-03-21 20:07:00,39.4,10.6,29.87,West,261,4.0,12.0,30,0.00,,,0.00,WeatherCatV1.11B39,2013-03-22 00:07:00,
2013-03-21 20:12:00,39.2,11.1,29.87,NW,310,6.0,7.0,31,0.00,,,0.00,WeatherCatV1.11B39,2013-03-22 00:12:00,
2013-03-21 20:17:00,39.1,11.0,29.87,NW,311,4.0,6.0,31,0.00,,,0.00,WeatherCatV1.11B39,2013-03-22 00:17:00,
2013-03-21 20:22:00,38.9,10.9,29.87,WNW,300,7.0,8.0,31,0.00,,,0.00,WeatherCatV1.11B39,2013-03-22 00:22:00,
2013-03-21 20:27:00,38.7,11.4,29.87,West,279,1.0,9.0,32,0.00,,,0.00,WeatherCatV1.11B39,2013-03-22 00:27:00,
2013-03-21 20:32:00,38.6,11.3,29.88,NW,311,6.0,6.0,32,0.00,,,0.00,WeatherCatV1.11B39,2013-03-22 00:32:00,
2013-03-21 20:37:00,38.4,11.8,29.88,WNW,285,2.0,7.0,33,0.00,,,0.00,WeatherCatV1.11B39,2013-03-22 00:37:00,
2013-03-21 20:42:00,38.2,11.7,29.88,West,275,2.0,4.0,33,0.00,,,0.00,WeatherCatV1.11B39,2013-03-22 00:42:00,
2013-03-21 20:47:00,37.9,11.4,29.88,West,281,4.0,5.0,33,0.00,,,0.00,WeatherCatV1.11B39,2013-03-22 00:47:00,
2013-03-21 20:52:00,37.8,11.3,29.88,WNW,288,6.0,6.0,33,0.00,,,0.00,WeatherCatV1.11B39,2013-03-22 00:52:00,
2013-03-21 20:57:00,37.8,11.3,29.88,WNW,294,6.0,7.0,33,0.00,,,0.00,WeatherCatV1.11B39,2013-03-22 00:57:00,
2013-03-21 21:02:00,37.3,15.2,29.88,West,274,2.0,6.0,40,0.00,,,0.00,WeatherCatV1.11B39,2013-03-22 01:02:00,
2013-03-21 21:07:00,36.4,15.0,29.89,West,273,4.0,6.0,41,0.00,,,0.00,WeatherCatV1.11B39,2013-03-22 01:07:00,
2013-03-21 21:12:00,35.9,15.6,29.89,West,273,2.0,4.0,43,0.00,,,0.00,WeatherCatV1.11B39,2013-03-22 01:12:00,
2013-03-21 21:17:00,35.6,14.8,29.89,West,273,4.0,5.0,42,0.00,,,0.00,WeatherCatV1.11B39,2013-03-22 01:17:00,
2013-03-21 21:22:00,35.7,12.6,29.90,West,271,6.0,6.0,38,0.00,,,0.00,WeatherCatV1.11B39,2013-03-22 01:22:00,
2013-03-21 21:27:00,36.2,12.5,29.90,WNW,298,6.0,7.0,37,0.00,,,0.00,WeatherCatV1.11B39,2013-03-22 01:27:00,
2013-03-21 21:32:00,36.5,12.7,29.89,NW,319,5.0,9.0,37,0.00,,,0.00,WeatherCatV1.11B39,2013-03-22 01:32:00,
2013-03-21 21:37:00,36.4,12.6,29.90,West,272,5.0,7.0,37,0.00,,,0.00,WeatherCatV1.11B39,2013-03-22 01:37:00,
2013-03-21 21:42:00,36.2,13.1,29.89,West,277,4.0,4.0,38,0.00,,,0.00,WeatherCatV1.11B39,2013-03-22 01:42:00,
2013-03-21 21:47:00,35.8,13.3,29.89,West,277,2.0,2.0,39,0.00,,,0.00,WeatherCatV1.11B39,2013-03-22 01:47:00,
2013-03-21 21:52:00,35.3,13.4,29.90,West,277,2.0,4.0,40,0.00,,,0.00,WeatherCatV1.11B39,2013-03-22 01:52:00,
2013-03-21 21:57:00,35.2,12.8,29.90,West,277,1.0,6.0,39,0.00,,,0.00,WeatherCatV1.11B39,2013-03-22 01:57:00,
2013-03-21 22:02:00,35.0,15.3,29.90,West,277,1.0,2.0,44,0.00,,,0.00,WeatherCatV1.11B39,2013-03-22 02:02:00,
2013-03-21 22:07:00,34.6,13.9,29.90,West,277,0.0,0.0,42,0.00,,,0.00,WeatherCatV1.11B39,2013-03-22 02:07:00,
2013-03-21 22:12:00,34.4,15.8,29.90,West,277,0.0,0.0,46,0.00,,,0.00,WeatherCatV1.11B39,2013-03-22 02:12:00,
2013-03-21 22:17:00,34.2,14.1,29.91,West,277,0.0,0.0,43,0.00,,,0.00,WeatherCatV1.11B39,2013-03-22 02:17:00,
2013-03-21 22:22:00,33.9,15.8,29.91,West,277,0.0,0.0,47,0.00,,,0.00,WeatherCatV1.11B39,2013-03-22 02:22:00,
2013-03-21 22:27:00,33.6,14.6,29.91,West,277,0.0,0.0,45,0.00,,,0.00,WeatherCatV1.11B39,2013-03-22 02:27:00,
2013-03-21 22:32:00,33.4,14.9,29.91,West,277,0.0,0.0,46,0.00,,,0.00,WeatherCatV1.11B39,2013-03-22 02:32:00,
2013-03-21 22:37:00,33.1,15.6,29.91,West,277,2.0,4.0,48,0.00,,,0.00,WeatherCatV1.11B39,2013-03-22 02:37:00,
2013-03-21 22:42:00,33.0,14.0,29.92,West,277,0.0,1.0,45,0.00,,,0.00,WeatherCatV1.11B39,2013-03-22 02:42:00,
2013-03-21 22:47:00,33.0,15.5,29.92,West,277,1.0,2.0,48,0.00,,,0.00,WeatherCatV1.11B39,2013-03-22 02:47:00,
2013-03-21 22:51:00,33.0,15.5,29.92,West,277,0.0,0.0,48,0.00,,,0.00,WeatherCatV1.11B39,2013-03-22 02:51:00,
2013-03-21 22:56:00,32.8,17.6,29.92,West,277,0.0,2.0,53,0.00,,,0.00,WeatherCatV1.11B39,2013-03-22 02:56:00,
2013-03-21 23:01:00,32.6,16.0,29.92,West,277,1.0,2.0,50,0.00,,,0.00,WeatherCatV1.11B39,2013-03-22 03:01:00,
2013-03-21 23:06:00,32.4,16.3,29.92,West,277,2.0,4.0,51,0.00,,,0.00,WeatherCatV1.11B39,2013-03-22 03:06:00,
2013-03-21 23:11:00,32.2,14.7,29.92,West,277,0.0,0.0,48,0.00,,,0.00,WeatherCatV1.11B39,2013-03-22 03:11:00,
2013-03-21 23:16:00,32.2,16.1,29.92,West,277,2.0,2.0,51,0.00,,,0.00,WeatherCatV1.11B39,2013-03-22 03:16:00,
2013-03-21 23:21:00,32.1,15.1,29.93,West,277,0.0,0.0,49,0.00,,,0.00,WeatherCatV1.11B39,2013-03-22 03:21:00,
2013-03-21 23:26:00,32.1,16.5,29.92,West,277,2.0,2.0,52,0.00,,,0.00,WeatherCatV1.11B39,2013-03-22 03:26:00,
2013-03-21 23:31:00,32.1,16.9,29.93,West,277,2.0,2.0,53,0.00,,,0.00,WeatherCatV1.11B39,2013-03-22 03:31:00,
2013-03-21 23:36:00,31.9,15.9,29.93,West,277,1.0,2.0,51,0.00,,,0.00,WeatherCatV1.11B39,2013-03-22 03:36:00,
2013-03-21 23:41:00,31.8,16.6,29.93,West,277,1.0,2.0,53,0.00,,,0.00,WeatherCatV1.11B39,2013-03-22 03:41:00,
2013-03-21 23:46:00,31.7,15.7,29.93,West,277,1.0,1.0,51,0.00,,,0.00,WeatherCatV1.11B39,2013-03-22 03:46:00,
2013-03-21 23:51:00,31.7,16.5,29.93,West,277,4.0,4.0,53,0.00,,,0.00,WeatherCatV1.11B39,2013-03-22 03:51:00,
2013-03-21 23:56:00,31.6,16.0,29.93,West,277,2.0,2.0,52,0.00,,,0.00,WeatherCatV1.11B39,2013-03-22 03:56:00,